EJU73DE ELLX-LIML

Flight info

Callsign EJU73DE
Flight time 1h 6m
Altitude 35000
Route GTQ DCT DEVDI DCT RIPUS DCT GERSA DCT SOSON DCT ODINA
Aircraft A320/M-SDE2E3FGHIJ1RWXYZ/LB1

Departure

Time 2026-04-29 19:34
Airport Luxembourg-Findel International Airport (ELLX)

Arrival

Time 2026-04-29 20:40
Airport Milano Linate Airport (LIML)
Time Latitude Longitude Altitude Speed Heading
2026-04-29 19:02 49.63202 6.21806 1228 ft 0 kts 60°
2026-04-29 19:25 49.63212 6.21833 1228 ft 8 kts 60°
2026-04-29 19:26 49.63194 6.21899 1228 ft 8 kts 153°
2026-04-29 19:26 49.63150 6.21879 1227 ft 8 kts 239°
2026-04-29 19:26 49.63120 6.21786 1226 ft 10 kts 244°
2026-04-29 19:26 49.63091 6.21691 1225 ft 9 kts 245°
2026-04-29 19:27 49.63065 6.21609 1226 ft 10 kts 244°
2026-04-29 19:27 49.63024 6.21476 1227 ft 17 kts 244°
2026-04-29 19:27 49.62964 6.21283 1231 ft 19 kts 244°
2026-04-29 19:27 49.62911 6.21111 1233 ft 17 kts 244°
2026-04-29 19:28 49.62864 6.20959 1245 ft 14 kts 244°
2026-04-29 19:28 49.62824 6.20832 1245 ft 14 kts 244°
2026-04-29 19:28 49.62749 6.20683 1251 ft 21 kts 221°
2026-04-29 19:28 49.62642 6.20543 1244 ft 20 kts 227°
2026-04-29 19:29 49.62548 6.20377 1232 ft 21 kts 229°
2026-04-29 19:29 49.62458 6.20178 1221 ft 24 kts 240°
2026-04-29 19:29 49.62367 6.19932 1206 ft 28 kts 240°
2026-04-29 19:29 49.62279 6.19697 1193 ft 19 kts 240°
2026-04-29 19:30 49.62219 6.19559 1185 ft 14 kts 213°
2026-04-29 19:30 49.62182 6.19557 1186 ft 0 kts 151°
2026-04-29 19:31 49.62174 6.19563 1187 ft 3 kts 152°
2026-04-29 19:31 49.62142 6.19589 1190 ft 9 kts 152°
2026-04-29 19:32 49.62105 6.19694 1195 ft 13 kts 78°
2026-04-29 19:32 49.62124 6.19753 1199 ft 0 kts 60°
2026-04-29 19:33 49.62133 6.19776 1200 ft 13 kts 60°
2026-04-29 19:33 49.62296 6.20216 1222 ft 78 kts 60°
2026-04-29 19:33 49.62661 6.21198 1233 ft 132 kts 60°
2026-04-29 19:33 49.63195 6.22629 1353 ft 165 kts 60°
2026-04-29 19:34 49.63761 6.24148 2033 ft 163 kts 62°
2026-04-29 19:34 49.64325 6.25674 2728 ft 170 kts 64°
2026-04-29 19:34 49.64646 6.27497 3023 ft 192 kts 98°
2026-04-29 19:34 49.63945 6.29388 3381 ft 223 kts 133°
2026-04-29 19:35 49.63139 6.30459 3685 ft 238 kts 135°
2026-04-29 19:35 49.61389 6.32672 4796 ft 246 kts 136°
2026-04-29 19:35 49.60052 6.34349 5677 ft 250 kts 137°
2026-04-29 19:35 49.58684 6.36075 6444 ft 258 kts 138°
2026-04-29 19:36 49.57272 6.37873 7206 ft 264 kts 137°
2026-04-29 19:36 49.55821 6.39616 7986 ft 270 kts 144°
2026-04-29 19:36 49.54113 6.40924 8761 ft 278 kts 152°
2026-04-29 19:36 49.52337 6.42146 9550 ft 282 kts 152°
2026-04-29 19:37 49.50556 6.43379 10297 ft 287 kts 152°
2026-04-29 19:37 49.49315 6.44240 10644 ft 297 kts 152°
2026-04-29 19:37 49.46695 6.46067 10972 ft 325 kts 152°
2026-04-29 19:37 49.44600 6.47525 11531 ft 334 kts 153°
2026-04-29 19:38 49.42465 6.49004 12213 ft 339 kts 153°
2026-04-29 19:38 49.40301 6.50500 12901 ft 344 kts 153°
2026-04-29 19:38 49.38105 6.52019 13574 ft 349 kts 153°
2026-04-29 19:38 49.35845 6.53577 14222 ft 354 kts 153°
2026-04-29 19:39 49.33614 6.55114 14816 ft 358 kts 153°
2026-04-29 19:39 49.31331 6.56683 15427 ft 362 kts 153°
2026-04-29 19:39 49.29019 6.58272 16020 ft 366 kts 153°
2026-04-29 19:39 49.26690 6.59872 16624 ft 370 kts 153°
2026-04-29 19:40 49.24326 6.61493 17209 ft 374 kts 153°
2026-04-29 19:40 49.21856 6.62834 17779 ft 381 kts 163°
2026-04-29 19:40 49.19271 6.63818 18353 ft 385 kts 163°
2026-04-29 19:40 49.16653 6.64813 18882 ft 389 kts 163°
2026-04-29 19:41 49.14013 6.65815 19372 ft 393 kts 163°
2026-04-29 19:41 49.11347 6.66826 19910 ft 396 kts 163°
2026-04-29 19:41 49.08662 6.67840 20461 ft 399 kts 163°
2026-04-29 19:41 49.05959 6.68860 21000 ft 401 kts 162°
2026-04-29 19:42 49.03243 6.69890 21535 ft 404 kts 162°
2026-04-29 19:42 49.02323 6.70238 21717 ft 405 kts 162°
2026-04-29 19:42 48.97813 6.72194 22595 ft 405 kts 154°
2026-04-29 19:42 48.95232 6.73934 23096 ft 407 kts 152°
2026-04-29 19:43 48.92645 6.75708 23628 ft 409 kts 152°
2026-04-29 19:43 48.90041 6.77496 24073 ft 412 kts 152°
2026-04-29 19:43 48.87424 6.79291 24490 ft 414 kts 153°
2026-04-29 19:43 48.84793 6.81092 24897 ft 416 kts 153°
2026-04-29 19:44 48.82144 6.82898 25300 ft 418 kts 153°
2026-04-29 19:44 48.79478 6.84708 25682 ft 421 kts 153°
2026-04-29 19:44 48.76798 6.86522 26067 ft 423 kts 153°
2026-04-29 19:44 48.74106 6.88342 26435 ft 425 kts 153°
2026-04-29 19:45 48.71396 6.90173 26795 ft 427 kts 153°
2026-04-29 19:45 48.68672 6.92011 27142 ft 429 kts 153°
2026-04-29 19:45 48.65939 6.93855 27499 ft 432 kts 153°
2026-04-29 19:45 48.63192 6.95710 27859 ft 434 kts 153°
2026-04-29 19:46 48.60426 6.97581 28193 ft 437 kts 152°
2026-04-29 19:46 48.57644 6.99459 28521 ft 439 kts 153°
2026-04-29 19:46 48.54852 7.01336 28875 ft 441 kts 152°
2026-04-29 19:46 48.52044 7.03218 29203 ft 442 kts 153°
2026-04-29 19:47 48.49227 7.05104 29525 ft 444 kts 152°
2026-04-29 19:47 48.46394 7.07000 29835 ft 446 kts 152°
2026-04-29 19:47 48.43547 7.08904 30164 ft 448 kts 153°
2026-04-29 19:47 48.40686 7.10815 30361 ft 452 kts 154°
2026-04-29 19:48 48.38781 7.12086 30509 ft 453 kts 153°
2026-04-29 19:48 48.35885 7.14014 30679 ft 457 kts 153°
2026-04-29 19:48 48.32965 7.15960 30879 ft 460 kts 154°
2026-04-29 19:48 48.30034 7.17911 31090 ft 462 kts 154°
2026-04-29 19:49 48.27092 7.19866 31373 ft 462 kts 154°
2026-04-29 19:49 48.24151 7.21818 31701 ft 461 kts 154°
2026-04-29 19:49 48.21221 7.23759 32022 ft 461 kts 154°
2026-04-29 19:49 48.18278 7.25705 32231 ft 464 kts 155°
2026-04-29 19:50 48.15315 7.27663 32449 ft 466 kts 155°
2026-04-29 19:50 48.12354 7.29619 32765 ft 465 kts 155°
2026-04-29 19:50 48.09396 7.31569 33066 ft 465 kts 155°
2026-04-29 19:50 48.06437 7.33515 33348 ft 465 kts 155°
2026-04-29 19:51 48.03476 7.35456 33633 ft 465 kts 155°
2026-04-29 19:51 48.00515 7.37396 33920 ft 465 kts 155°
2026-04-29 19:51 47.97550 7.39336 34167 ft 466 kts 157°
2026-04-29 19:51 47.94575 7.41284 34311 ft 468 kts 157°
2026-04-29 19:52 47.91590 7.43243 34512 ft 469 kts 157°
2026-04-29 19:52 47.88604 7.45202 34735 ft 469 kts 157°
2026-04-29 19:52 47.85615 7.47155 34965 ft 469 kts 157°
2026-04-29 19:52 47.82619 7.49105 35128 ft 469 kts 157°
2026-04-29 19:53 47.79643 7.51037 35163 ft 464 kts 157°
2026-04-29 19:53 47.74119 7.55877 35165 ft 466 kts 140°
2026-04-29 19:54 47.67871 7.66963 35166 ft 468 kts 126°
2026-04-29 19:54 47.64029 7.74691 35168 ft 468 kts 126°
2026-04-29 19:55 47.60152 7.82443 35163 ft 468 kts 126°
2026-04-29 19:55 47.56277 7.90196 35166 ft 468 kts 126°
2026-04-29 19:56 47.52380 7.97987 35143 ft 468 kts 126°
2026-04-29 19:56 47.48493 8.05729 35175 ft 477 kts 127°
2026-04-29 19:57 47.45158 8.12340 35174 ft 480 kts 127°
2026-04-29 19:57 47.40508 8.21538 35166 ft 481 kts 127°
2026-04-29 19:58 47.36499 8.29443 35165 ft 481 kts 127°
2026-04-29 19:58 47.32491 8.37324 35178 ft 480 kts 127°
2026-04-29 19:59 47.28065 8.44646 35166 ft 478 kts 143°
2026-04-29 19:59 47.25344 8.47416 35162 ft 475 kts 154°
2026-04-29 19:59 47.22382 8.49463 35155 ft 470 kts 164°
2026-04-29 20:00 47.16060 8.51445 35150 ft 461 kts 180°
2026-04-29 20:00 47.09656 8.52374 35139 ft 463 kts 179°
2026-04-29 20:01 47.03248 8.53299 35124 ft 463 kts 180°
2026-04-29 20:01 46.96828 8.54227 35132 ft 463 kts 180°
2026-04-29 20:02 46.90415 8.55159 35138 ft 463 kts 180°
2026-04-29 20:02 46.85077 8.55929 35106 ft 463 kts 179°
2026-04-29 20:03 46.80795 8.56543 34869 ft 464 kts 180°
2026-04-29 20:03 46.77542 8.57000 33974 ft 472 kts 181°
2026-04-29 20:03 46.74293 8.57461 33412 ft 467 kts 180°
2026-04-29 20:03 46.71072 8.57928 32849 ft 462 kts 180°
2026-04-29 20:04 46.67921 8.58396 32302 ft 447 kts 180°
2026-04-29 20:04 46.64878 8.58850 31784 ft 433 kts 180°
2026-04-29 20:04 46.61926 8.59281 31288 ft 420 kts 181°
2026-04-29 20:04 46.59060 8.59688 30846 ft 411 kts 181°
2026-04-29 20:05 46.56217 8.60083 30392 ft 410 kts 181°
2026-04-29 20:05 46.53377 8.60472 29918 ft 409 kts 181°
2026-04-29 20:05 46.50554 8.60860 29474 ft 406 kts 181°
2026-04-29 20:05 46.47760 8.61249 29042 ft 401 kts 180°
2026-04-29 20:06 46.44998 8.61639 28634 ft 397 kts 180°
2026-04-29 20:06 46.42267 8.62026 28216 ft 393 kts 180°
2026-04-29 20:06 46.39557 8.62412 27796 ft 390 kts 180°
2026-04-29 20:06 46.36876 8.62793 27384 ft 385 kts 180°
2026-04-29 20:07 46.34237 8.63168 26984 ft 379 kts 180°
2026-04-29 20:07 46.31615 8.63539 26559 ft 377 kts 180°
2026-04-29 20:07 46.29049 8.63899 26140 ft 374 kts 180°
2026-04-29 20:07 46.26437 8.64265 25723 ft 372 kts 180°
2026-04-29 20:08 46.23909 8.64620 25290 ft 366 kts 179°
2026-04-29 20:08 46.22198 8.64858 24999 ft 365 kts 179°
2026-04-29 20:08 46.18875 8.65321 24431 ft 363 kts 179°
2026-04-29 20:08 46.16367 8.65669 24008 ft 361 kts 179°
2026-04-29 20:09 46.13866 8.66017 23554 ft 362 kts 179°
2026-04-29 20:09 46.11368 8.66549 23082 ft 363 kts 170°
2026-04-29 20:09 46.08978 8.67714 22642 ft 364 kts 159°
2026-04-29 20:09 46.06741 8.69405 22218 ft 362 kts 154°
2026-04-29 20:10 46.04538 8.71140 21788 ft 360 kts 154°
2026-04-29 20:10 46.02342 8.72862 21353 ft 358 kts 153°
2026-04-29 20:10 46.00157 8.74568 20949 ft 357 kts 153°
2026-04-29 20:10 45.97975 8.76269 20522 ft 357 kts 153°
2026-04-29 20:11 45.95792 8.77972 20097 ft 356 kts 153°
2026-04-29 20:11 45.93613 8.79670 19679 ft 356 kts 153°
2026-04-29 20:11 45.91437 8.81364 19263 ft 356 kts 153°
2026-04-29 20:11 45.89261 8.83057 18844 ft 355 kts 153°
2026-04-29 20:12 45.87090 8.84746 18424 ft 356 kts 153°
2026-04-29 20:12 45.84914 8.86437 17969 ft 355 kts 153°
2026-04-29 20:12 45.82749 8.88116 17550 ft 353 kts 153°
2026-04-29 20:12 45.80592 8.89788 17150 ft 351 kts 152°
2026-04-29 20:13 45.78463 8.91438 16943 ft 344 kts 152°
2026-04-29 20:13 45.77081 8.92510 16673 ft 341 kts 152°
2026-04-29 20:13 45.74300 8.94666 16021 ft 337 kts 152°
2026-04-29 20:13 45.72245 8.96255 15597 ft 333 kts 152°
2026-04-29 20:14 45.70219 8.97816 15216 ft 328 kts 152°
2026-04-29 20:14 45.68222 8.99354 14849 ft 323 kts 152°
2026-04-29 20:14 45.66257 9.00865 14486 ft 319 kts 152°
2026-04-29 20:14 45.64326 9.02352 14131 ft 315 kts 152°
2026-04-29 20:15 45.62403 9.03834 13745 ft 311 kts 152°
2026-04-29 20:15 45.60509 9.05292 13363 ft 306 kts 151°
2026-04-29 20:15 45.58650 9.06723 13015 ft 302 kts 151°
2026-04-29 20:15 45.56813 9.08136 12660 ft 297 kts 151°
2026-04-29 20:16 45.55005 9.09520 12351 ft 293 kts 151°
2026-04-29 20:16 45.53201 9.10899 12269 ft 294 kts 151°
2026-04-29 20:16 45.51371 9.12187 12141 ft 293 kts 160°
2026-04-29 20:16 45.49398 9.12875 11967 ft 292 kts 175°
2026-04-29 20:17 45.47380 9.13101 11766 ft 291 kts 177°
2026-04-29 20:17 45.45371 9.13319 11564 ft 288 kts 176°
2026-04-29 20:17 45.43386 9.13540 11355 ft 284 kts 176°
2026-04-29 20:17 45.41413 9.13761 11174 ft 285 kts 176°
2026-04-29 20:18 45.39449 9.13982 10979 ft 282 kts 176°
2026-04-29 20:18 45.37508 9.14199 10789 ft 278 kts 176°
2026-04-29 20:18 45.35586 9.14414 10598 ft 277 kts 176°
2026-04-29 20:18 45.33668 9.14631 10410 ft 277 kts 176°
2026-04-29 20:19 45.31744 9.14851 10222 ft 277 kts 176°
2026-04-29 20:19 45.29821 9.15066 10031 ft 277 kts 176°
2026-04-29 20:19 45.27911 9.15279 9830 ft 274 kts 175°
2026-04-29 20:19 45.26006 9.15490 9636 ft 275 kts 176°
2026-04-29 20:20 45.24122 9.15699 9513 ft 266 kts 176°
2026-04-29 20:20 45.22328 9.15902 9402 ft 259 kts 176°
2026-04-29 20:20 45.20543 9.16103 9244 ft 257 kts 176°
2026-04-29 20:20 45.18743 9.16300 9071 ft 255 kts 176°
2026-04-29 20:21 45.17009 9.16487 8903 ft 252 kts 176°
2026-04-29 20:21 45.15256 9.16677 8743 ft 253 kts 176°
2026-04-29 20:21 45.13499 9.16869 8565 ft 253 kts 176°
2026-04-29 20:21 45.11753 9.17066 8411 ft 252 kts 176°
2026-04-29 20:22 45.10010 9.17263 8248 ft 250 kts 176°
2026-04-29 20:22 45.08282 9.17475 8130 ft 249 kts 171°
2026-04-29 20:22 45.06706 9.18386 8096 ft 247 kts 140°
2026-04-29 20:22 45.05687 9.20301 8097 ft 246 kts 108°
2026-04-29 20:23 45.05509 9.22664 8097 ft 243 kts 77°
2026-04-29 20:23 45.06214 9.24789 8098 ft 240 kts 45°
2026-04-29 20:23 45.07580 9.26080 8097 ft 238 kts 19°
2026-04-29 20:23 45.09167 9.26794 8097 ft 240 kts 13°
2026-04-29 20:24 45.10777 9.27419 8098 ft 240 kts 14°
2026-04-29 20:24 45.12383 9.28032 8096 ft 240 kts 14°
2026-04-29 20:24 45.13994 9.28638 8098 ft 240 kts 14°
2026-04-29 20:24 45.15607 9.29240 8098 ft 240 kts 13°
2026-04-29 20:25 45.17220 9.29846 8101 ft 239 kts 13°
2026-04-29 20:25 45.18826 9.30454 8103 ft 239 kts 14°
2026-04-29 20:25 45.20454 9.31063 8108 ft 249 kts 14°
2026-04-29 20:25 45.22149 9.31690 8104 ft 254 kts 13°
2026-04-29 20:26 45.23858 9.32322 8107 ft 254 kts 14°
2026-04-29 20:26 45.25575 9.32956 8107 ft 255 kts 14°
2026-04-29 20:26 45.27296 9.33587 8110 ft 255 kts 14°
2026-04-29 20:26 45.29016 9.34223 8110 ft 255 kts 14°
2026-04-29 20:27 45.30729 9.34859 8108 ft 255 kts 14°
2026-04-29 20:27 45.31863 9.35279 8111 ft 255 kts 14°
2026-04-29 20:27 45.34196 9.35565 8108 ft 253 kts 345°
2026-04-29 20:27 45.35773 9.34489 8114 ft 253 kts 326°
2026-04-29 20:28 45.37207 9.33045 8111 ft 252 kts 324°
2026-04-29 20:28 45.38624 9.31559 8110 ft 253 kts 324°
2026-04-29 20:28 45.40041 9.30065 8113 ft 254 kts 324°
2026-04-29 20:28 45.41456 9.28576 8112 ft 254 kts 323°
2026-04-29 20:29 45.42882 9.27081 8059 ft 254 kts 324°
2026-04-29 20:29 45.44297 9.25595 7736 ft 252 kts 324°
2026-04-29 20:29 45.45701 9.24117 7368 ft 251 kts 323°
2026-04-29 20:29 45.47090 9.22659 6999 ft 251 kts 324°
2026-04-29 20:30 45.48490 9.21188 6646 ft 249 kts 324°
2026-04-29 20:30 45.49884 9.19719 6266 ft 249 kts 324°
2026-04-29 20:30 45.51256 9.18257 6028 ft 241 kts 323°
2026-04-29 20:30 45.52566 9.16856 5908 ft 230 kts 324°
2026-04-29 20:31 45.53817 9.15507 5709 ft 222 kts 323°
2026-04-29 20:31 45.55021 9.14197 5581 ft 212 kts 323°
2026-04-29 20:31 45.56198 9.13018 5397 ft 203 kts 336°
2026-04-29 20:31 45.57569 9.12527 4833 ft 210 kts
2026-04-29 20:32 45.59022 9.12810 4466 ft 207 kts 16°
2026-04-29 20:32 45.60421 9.13186 4638 ft 205 kts 14°
2026-04-29 20:32 45.61820 9.13582 4506 ft 203 kts 14°
2026-04-29 20:32 45.62770 9.13848 4425 ft 208 kts 14°
2026-04-29 20:33 45.64381 9.15042 4292 ft 189 kts 51°
2026-04-29 20:33 45.65025 9.16567 4160 ft 176 kts 76°
2026-04-29 20:33 45.65190 9.18324 4080 ft 181 kts 90°
2026-04-29 20:33 45.65248 9.20118 4016 ft 180 kts 89°
2026-04-29 20:34 45.65310 9.21827 4015 ft 165 kts 90°
2026-04-29 20:34 45.65340 9.22904 4024 ft 163 kts 95°
2026-04-29 20:34 45.65004 9.24398 4029 ft 158 kts 126°
2026-04-29 20:34 45.64181 9.25406 4025 ft 158 kts 155°
2026-04-29 20:35 45.63092 9.25717 3852 ft 161 kts 173°
2026-04-29 20:35 45.61993 9.25829 3608 ft 154 kts 173°
2026-04-29 20:35 45.60965 9.25936 3406 ft 143 kts 171°
2026-04-29 20:35 45.59994 9.26039 3194 ft 138 kts 171°
2026-04-29 20:36 45.59041 9.26139 3008 ft 136 kts 167°
2026-04-29 20:36 45.58104 9.26237 2831 ft 135 kts 168°
2026-04-29 20:36 45.57171 9.26338 2650 ft 134 kts 167°
2026-04-29 20:36 45.56240 9.26440 2468 ft 134 kts 167°
2026-04-29 20:37 45.55312 9.26542 2284 ft 134 kts 167°
2026-04-29 20:37 45.54383 9.26642 2110 ft 134 kts 169°
2026-04-29 20:37 45.53449 9.26742 1932 ft 137 kts 168°
2026-04-29 20:37 45.52512 9.26843 1752 ft 134 kts 168°
2026-04-29 20:38 45.51590 9.26942 1564 ft 132 kts 168°
2026-04-29 20:38 45.50672 9.27039 1398 ft 134 kts 169°
2026-04-29 20:38 45.49739 9.27146 1197 ft 135 kts 171°
2026-04-29 20:38 45.48806 9.27248 1015 ft 135 kts 171°
2026-04-29 20:39 45.47873 9.27340 821 ft 134 kts 171°
2026-04-29 20:39 45.46956 9.27435 681 ft 134 kts 172°
2026-04-29 20:39 45.46030 9.27525 522 ft 132 kts 168°
2026-04-29 20:39 45.45123 9.27632 372 ft 128 kts 167°
2026-04-29 20:40 45.44384 9.27720 364 ft 71 kts 176°
2026-04-29 20:40 45.44065 9.27755 359 ft 39 kts 175°
2026-04-29 20:40 45.43812 9.27781 360 ft 34 kts 175°
2026-04-29 20:40 45.43582 9.27807 368 ft 30 kts 175°
2026-04-29 20:41 45.43451 9.27864 363 ft 14 kts 121°
2026-04-29 20:41 45.43444 9.27968 361 ft 10 kts 85°
2026-04-29 20:41 45.43466 9.28065 361 ft 11 kts 41°
2026-04-29 20:41 45.43537 9.28079 361 ft 10 kts 356°
2026-04-29 20:42 45.43631 9.28069 361 ft 15 kts 356°
2026-04-29 20:42 45.43731 9.28059 360 ft 14 kts 356°
2026-04-29 20:42 45.43836 9.28047 362 ft 18 kts 356°
2026-04-29 20:42 45.43982 9.28032 364 ft 24 kts 355°
2026-04-29 20:43 45.44158 9.28013 360 ft 26 kts 356°
2026-04-29 20:43 45.44331 9.27994 360 ft 26 kts 356°
2026-04-29 20:43 45.44479 9.27978 360 ft 20 kts 355°
2026-04-29 20:43 45.44615 9.27964 360 ft 19 kts 355°
2026-04-29 20:44 45.44742 9.27950 362 ft 18 kts 355°
2026-04-29 20:44 45.44874 9.27930 362 ft 18 kts 346°
2026-04-29 20:44 45.44992 9.27890 364 ft 17 kts 355°
2026-04-29 20:44 45.45103 9.27877 360 ft 15 kts 355°
2026-04-29 20:45 45.45222 9.27874 362 ft 20 kts
2026-04-29 20:45 45.45346 9.27948 361 ft 17 kts 26°
2026-04-29 20:45 45.45444 9.27957 362 ft 13 kts 314°
2026-04-29 20:45 45.45463 9.27840 360 ft 11 kts 292°
2026-04-29 20:46 45.45542 9.27814 363 ft 13 kts 359°
2026-04-29 20:46 45.45625 9.27815 360 ft 11 kts
2026-04-29 20:46 45.45700 9.27817 360 ft 9 kts
2026-04-29 20:46 45.45734 9.27836 366 ft 4 kts 65°
2026-04-29 20:47 45.45735 9.27877 360 ft 4 kts 89°
2026-04-29 20:47 45.45735 9.27893 360 ft 0 kts 89°